Weather History for KROA - January, 2013

Change the Weather History Date:

Sunday, January 6, 2013

  Actual Average Record
Temperature  
Mean Temperature 43 °F 36 °F  
Max Temperature 50 °F 45 °F 72 °F (1950)
Min Temperature 36 °F 28 °F 2 °F (1924)
Degree Days  
Heating Degree Days 22 29  
Month to date heating degree days 146 171  
Since 1 July heating degree days 1658 1781  
Cooling Degree Days 0 0  
Month to date cooling degree days 0 0  
Year to date cooling degree days 0 0  
Moisture  
Dew Point 28 °F    
Average Humidity 56    
Maximum Humidity 70    
Minimum Humidity 42    
Precipitation  
Precipitation T in 0.10 in 1.13 in (1936)
Month to date precipitation 0.02 0.55  
Year to date precipitation 0.02 0.55  
Snow  
Snow 0.00 in - - ()
Month to date snowfall T  
Since 1 July snowfall 0.3  
Snow Depth 0.00 in    
Sea Level Pressure  
Sea Level Pressure 30.14 in    
Wind  
Wind Speed 8 mph (West)    
Max Wind Speed 22 mph    
Max Gust Speed 29 mph    
Visibility 10 miles    
Events Rain    
T = Trace of Precipitation, MM = Missing Value Source: NWS Daily Summary

Daily Weather History Graph

Daily Weather History Graph

Search for Another Location

Airport or City:

Trip Planner

Search our weather history database for the weather conditions in past years. The results will help you decide how hot, cold, wet, or windy it might be!

Date:

Astronomy

Jan. 06, 2013 Rise Set
Actual Time 7:34 AM EST 5:17 PM EST
Civil Twilight 7:05 AM EST 5:46 PM EST
Nautical Twilight 6:33 AM EST 6:18 PM EST
Astronomical Twilight 6:01 AM EST 6:50 PM EST
Moon 1:49 AM EST (1/6) 12:41 PM EST (1/6)
Length of Visible Light 10h 40m
Length of Day
9h 43m
Waning Crescent, 33% of the Moon is Illuminated
Jan 6
Waning Crescent
Jan 11
New
Jan 18
First Quarter
Jan 26
Full
Feb 3
Last Quarter

Hourly Weather History & Observations

Time (EST) Temp. Windchill Dew Point Humidity Pressure Visibility Wind Dir Wind Speed Gust Speed Precip Events Conditions
12:54 AM 42.1 °F - 28.0 °F 58% 30.20 in 10.0 mi Calm Calm - 0.00 in   Overcast
1:54 AM 42.1 °F 40.2 °F 28.0 °F 58% 30.19 in 10.0 mi WSW 3.5 mph - 0.00 in Rain Light Rain
2:54 AM 42.1 °F 36.6 °F 28.0 °F 58% 30.18 in 10.0 mi WSW 9.2 mph - 0.00 in   Partly Cloudy
3:54 AM 39.9 °F 34.5 °F 28.0 °F 63% 30.17 in 10.0 mi West 8.1 mph - N/A   Scattered Clouds
4:54 AM 39.0 °F 34.8 °F 28.0 °F 65% 30.15 in 10.0 mi WNW 5.8 mph - N/A   Partly Cloudy
5:54 AM 37.9 °F 32.1 °F 28.0 °F 68% 30.15 in 10.0 mi West 8.1 mph - N/A   Partly Cloudy
6:54 AM 37.9 °F 32.1 °F 28.0 °F 68% 30.16 in 10.0 mi West 8.1 mph - N/A   Partly Cloudy
7:54 AM 37.0 °F 32.4 °F 28.0 °F 70% 30.17 in 10.0 mi West 5.8 mph - N/A   Partly Cloudy
8:54 AM 41.0 °F 35.2 °F 28.9 °F 62% 30.17 in 10.0 mi West 9.2 mph - N/A   Clear
9:54 AM 43.0 °F 36.8 °F 30.0 °F 60% 30.18 in 10.0 mi West 11.5 mph - N/A   Mostly Cloudy
10:54 AM 46.0 °F 42.5 °F 30.0 °F 54% 30.17 in 10.0 mi WSW 6.9 mph - N/A   Scattered Clouds
11:54 AM 48.0 °F - 28.9 °F 48% 30.13 in 10.0 mi WSW 11.5 mph 19.6 mph N/A   Scattered Clouds
12:54 PM 48.2 °F - 26.6 °F 43% 30.09 in 10.0 mi West 13.8 mph 19.6 mph N/A   Scattered Clouds
1:54 PM 46.9 °F - 26.1 °F 44% 30.08 in 10.0 mi West 12.7 mph - N/A   Scattered Clouds
2:54 PM 48.9 °F - 27.0 °F 43% 30.07 in 10.0 mi West 11.5 mph - N/A   Mostly Cloudy
3:54 PM 48.0 °F - 26.1 °F 42% 30.08 in 10.0 mi West 10.4 mph - N/A   Mostly Cloudy
4:54 PM 46.0 °F 40.6 °F 27.0 °F 47% 30.09 in 10.0 mi WNW 11.5 mph - N/A   Mostly Cloudy
5:54 PM 44.1 °F 40.1 °F 26.1 °F 49% 30.12 in 10.0 mi WNW 6.9 mph - N/A   Mostly Cloudy
6:54 PM 44.1 °F 41.5 °F 26.1 °F 49% 30.14 in 10.0 mi West 4.6 mph - N/A   Mostly Cloudy
7:54 PM 44.1 °F - 28.9 °F 55% 30.14 in 10.0 mi Calm Calm - N/A   Overcast
8:54 PM 42.1 °F 40.2 °F 27.0 °F 55% 30.14 in 10.0 mi West 3.5 mph - N/A   Overcast
10:54 PM 44.6 °F 38.8 °F 24.8 °F 46% 30.16 in 10.0 mi NW 11.5 mph 23.0 mph N/A   Overcast
11:54 PM 45.0 °F 39.7 °F 25.0 °F 46% 30.18 in 10.0 mi WNW 10.4 mph 24.2 mph N/A   Overcast